Location: Sungai Buloh
(3.1000°N, 113.0000°E)
Time: 16:21:45
(UTC+00:00)

Cosmos 2278 Rocket - Pass Details

Date: 12 January 2026
Orbit: 839 x 846 km, 71.0° (Epoch: 10 February)

Event Time Altitude Azimuth Distance (km) Brightness Sun altitude
Rises 20:42:34 0° 174° (S) 3,386 5.7 -27.6°
Reaches altitude 10° 20:45:20 10° 163° (SSE) 2,450 5.1 -26.9°
Maximum altitude 20:50:04 28° 105° (ESE) 1,518 4.2 -25.8°
Drops below altitude 10° 20:54:48 10° 47° (NE) 2,445 4.9 -24.7°
Sets 20:57:33 0° 36° (NE) 3,378 5.5 -24.1°
